Tracking 19846 objects as of 18-Sep-2019
HD Live streaming from Space Station
objects crossing your sky now

FENGYUN 1C DEB

Track FENGYUN 1C DEB now!
10-day predictions


NORAD ID: 30611
Int'l Code: 1999-025AMS
Perigee: 423.2 km
Apogee: 657.5 km
Inclination: 98.6 °
Period: 95.3 minutes
Semi major axis: 6911 km
RCS: 0.0108 m2 (small)
Launch date: May 10, 1999
Source: People's Republic of China (PRC)
Launch site: Taiyaun Space Center, China (TSC)

Note: This is SATELLITE DEBRIS
aabbcc
Your satellite tracking list
Your tracking list is empty




NASA's NSSDC Master Catalog

Two Line Element Set (TLE):
1 30611U 99025AMS 19260.92535082  .00001605  00000-0  72715-4 0  9996
2 30611  98.6337 301.6125 0169560 287.8880  70.3920 15.10979494682977
Source of the keplerian elements: AFSPC